[[{"header":{"parameterUnit":"m.s-1","parameterCategory":1,"la1":30.2991,"la2":30.254,"lo1":-89.0895,"lo2":-89.0444,"dy":0.0017,"dx":0.0017,"nx":28,"ny":28,"refTime":"2025-11-18T03:00:00:Z","depth":0,"parameterNumber":2,"parameterNumberName":"U-component_of_WINDS"},"data":[0,0,0,0,0,0,0,0,0,0,0,0,0,0,0,0,0,0,0,0,0,0,0,0,0,0,0,0,0,0,0,0,0,0,0,0,0,0,0,0,0,0,0,0,0,0,0,0,0,0,0,0,0,0,0,0,0,0,-1.7581,-1.7582,0,-1.7618,-1.7618,-1.7619,-1.7625,-1.7625,-1.7625,-1.7624,-1.7662,-1.7663,-1.7664,0,0,0,0,0,0,0,0,0,0,0,0,0,-1.7518,-1.7519,-1.7581,-1.7582,-1.7582,-1.7618,-1.7619,-1.7619,-1.7625,-1.7625,-1.7624,-1.7624,-1.7661,-1.7663,-1.7665,0,0,0,0,0,0,0,0,0,0,0,0,0,-1.7549,-1.752,-1.7581,-1.759,-1.7591,-1.7618,-1.7619,-1.7619,-1.7625,-1.7625,-1.7624,-1.7624,-1.7661,-1.7663,-1.7665,-1.7686,0,0,-1.7671,-1.7671,0,0,0,0,0,0,0,0,-1.7547,-1.7552,-1.7588,-1.7589,-1.759,-1.7617,-1.761,-1.7642,-1.7625,-1.7612,-1.7624,-1.7624,-1.7647,-1.765,-1.7658,-1.7688,-1.7689,-1.7671,-1.7672,-1.7673,-1.7673,0,0,0,0,0,0,0,-1.7545,-1.755,-1.7596,-1.7588,-1.759,-1.7592,-1.7596,-1.7616,-1.7632,-1.7613,-1.7614,-1.7618,-1.7648,-1.7656,-1.7659,-1.769,-1.7671,-1.7672,-1.7674,-1.7674,-1.7741,-1.7742,0,0,0,0,0,0,-1.7542,-1.7548,-1.7595,-1.7597,-1.7567,-1.7594,-1.7598,-1.7609,-1.7632,-1.7635,-1.7618,-1.7618,-1.7653,-1.7657,-1.766,-1.7688,-1.7673,-1.7675,-1.7676,-1.7741,-1.7741,-1.7742,0,0,0,0,0,0,-1.754,-1.7546,-1.7593,-1.7573,-1.7579,-1.7595,-1.7607,-1.761,-1.7618,-1.7636,-1.7638,-1.7624,-1.7653,-1.7658,-1.768,-1.7689,-1.7676,-1.7677,-1.774,-1.7741,-1.7742,-1.7742,0,0,0,0,0,0,-1.7538,-1.7545,-1.7553,-1.7573,-1.758,-1.7611,-1.7608,-1.7611,-1.7621,-1.7621,-1.7642,-1.7644,-1.7653,-1.7677,-1.7682,-1.7691,-1.7679,-1.7739,-1.774,-1.7741,-1.7741,-1.7742,-1.7744,0,0,0,0,0,-1.7536,-1.7551,-1.7553,-1.7558,-1.759,-1.7612,-1.7616,-1.7625,-1.7622,-1.763,-1.7642,-1.7644,-1.7688,-1.7679,-1.7685,-1.7695,-1.7739,-1.774,-1.7741,-1.774,-1.7742,-1.7744,0,0,0,0,0,0,-1.753,-1.7553,-1.7556,-1.7578,-1.7593,-1.7613,-1.7623,-1.7627,-1.7643,-1.7643,-1.7654,-1.7658,-1.768,-1.769,-1.7681,-1.7718,-1.7713,-1.7716,-1.771,-1.7712,-1.7714,-1.771,-1.768,0,0,0,0,0,-1.7532,-1.7547,-1.7567,-1.7584,-1.7592,-1.7606,-1.7616,-1.7623,-1.7639,-1.7645,-1.7658,-1.7674,-1.7692,-1.7703,-1.772,-1.7743,-1.7748,-1.7753,-1.7755,-1.7756,-1.7757,-1.7772,-1.7774,-1.7747,-1.7747,-1.7747,0,0,-1.7534,-1.7549,-1.7558,-1.7584,-1.7596,-1.7613,-1.7612,-1.7629,-1.7641,-1.7648,-1.767,-1.768,-1.7699,-1.7722,-1.7733,-1.7731,-1.7767,-1.7758,-1.7758,-1.7759,-1.7773,-1.7776,-1.7778,-1.7748,-1.7747,-1.7747,0,0,-1.7547,-1.756,-1.7576,-1.7589,-1.7609,-1.7619,-1.7623,-1.7643,-1.7651,-1.7673,-1.7679,-1.7695,-1.7724,-1.7738,-1.7748,-1.777,-1.7773,-1.7776,-1.7782,-1.7796,-1.7798,-1.78,-1.7808,-1.7811,-1.7778,-1.7778,-1.7778,0,-1.7548,-1.7573,-1.7584,-1.7602,-1.7613,-1.7621,-1.7638,-1.765,-1.7674,-1.7682,-1.768,-1.7719,-1.7732,-1.7759,-1.7765,-1.7773,-1.7779,-1.7772,-1.7797,-1.7799,-1.7801,-1.7809,-1.7812,-1.7778,-1.7778,-1.7778,-1.7778,0,-1.7573,-1.759,-1.7601,-1.7625,-1.7638,-1.7655,-1.767,-1.7682,-1.7688,-1.7699,-1.7723,-1.7739,-1.776,-1.7768,-1.7774,-1.7797,-1.7795,-1.7795,-1.779,-1.7804,-1.7811,-1.7814,-1.7778,-1.7778,-1.7778,-1.7778,0,0,-1.7581,-1.7612,-1.7616,-1.7627,-1.7651,-1.7665,-1.7684,-1.7705,-1.7715,-1.7732,-1.7748,-1.7775,-1.7776,-1.7788,-1.7796,-1.7808,-1.7825,-1.7807,-1.7808,-1.781,-1.7852,-1.7851,-1.7854,-1.7828,-1.7829,-1.7829,-1.7851,0,-1.7596,-1.7629,-1.7641,-1.7668,-1.7685,-1.7694,-1.7711,-1.7727,-1.7739,-1.7755,-1.7768,-1.7787,-1.7786,-1.7794,-1.7807,-1.782,-1.7834,-1.7819,-1.7843,-1.7844,-1.7837,-1.7858,-1.7857,-1.7876,-1.7854,-1.7854,-1.7854,0,-1.7618,-1.7636,-1.7665,-1.7688,-1.7696,-1.771,-1.7731,-1.7747,-1.7767,-1.7774,-1.779,-1.7797,-1.7818,-1.7814,-1.7843,-1.7833,-1.7844,-1.7853,-1.7854,-1.7855,-1.7849,-1.7859,-1.7882,-1.7884,-1.7859,-1.7859,-1.7858,0,-1.7621,-1.7652,-1.7674,-1.7684,-1.7711,-1.7721,-1.7733,-1.7753,-1.7765,-1.7785,-1.7793,-1.7815,-1.7826,-1.7843,-1.7857,-1.7852,-1.7885,-1.7881,-1.7892,-1.7892,-1.7897,-1.7896,-1.7921,-1.7906,-1.7906,-1.7906,-1.7906,0,-1.7636,-1.7653,-1.7676,-1.7689,-1.7709,-1.7724,-1.7744,-1.7756,-1.7774,-1.7791,-1.7801,-1.7816,-1.7834,-1.7852,-1.7863,-1.7886,-1.7892,-1.7899,-1.7901,-1.7897,-1.7896,-1.7903,-1.7902,-1.7907,-1.7907,-1.7907,-1.7906,0,-1.7641,-1.7657,-1.7681,-1.7706,-1.7713,-1.7727,-1.7748,-1.7762,-1.7775,-1.7796,-1.7802,-1.7822,-1.7844,-1.786,-1.7888,-1.7896,-1.7921,-1.7924,-1.7914,-1.7915,-1.7924,-1.7923,-1.7953,-1.7958,-1.7941,-1.7941,-1.7941,0,-1.7649,-1.7663,-1.769,-1.7702,-1.7714,-1.7733,-1.7746,-1.7762,-1.7776,-1.7801,-1.7812,-1.7835,-1.7853,-1.7889,-1.7906,-1.7929,-1.7932,-1.7941,-1.7935,-1.7931,-1.7931,-1.793,-1.7931,-1.7941,-1.7941,-1.7941,-1.7941,0,-1.7662,-1.767,-1.7689,-1.7711,-1.7726,-1.7744,-1.7763,-1.7772,-1.7792,-1.7807,-1.783,-1.7844,-1.7874,-1.7897,-1.7922,-1.7935,-1.7941,-1.7944,-1.7947,-1.7942,-1.7936,-1.7939,-1.7915,-1.7942,-1.7942,-1.7942,-1.7942,-1.7942,-1.7669,-1.7682,-1.7703,-1.7724,-1.774,-1.7757,-1.7772,-1.7787,-1.7806,-1.7832,-1.7841,-1.7864,-1.7886,-1.792,-1.7934,-1.7953,-1.7953,-1.7958,-1.7959,-1.796,-1.7959,-1.7934,-1.7958,-1.7958,-1.7958,-1.7958,-1.7958,0,-1.7682,-1.7697,-1.7716,-1.7742,-1.7759,-1.7765,-1.7786,-1.7799,-1.782,-1.784,-1.7859,-1.7886,-1.7909,-1.7929,-1.7953,-1.7965,-1.7969,-1.7971,-1.7969,-1.7972,-1.7958,-1.7953,-1.7967,-1.7967,-1.7967,-1.7967,-1.7967,-1.7967,-1.7691,-1.7713,-1.7724,-1.7755,-1.777,-1.7793,-1.7805,-1.7821,-1.7837,-1.7867,-1.7886,-1.7899,-1.792,-1.7946,-1.7968,-1.7973,-1.7981,-1.7982,-1.7988,-1.7975,-1.7973,-1.7972,-1.7967,-1.7984,-1.7984,-1.8001,-1.8001,-1.8001]},{"header":{"parameterUnit":"m.s-1","parameterCategory":1,"la1":30.2991,"la2":30.254,"lo1":-89.0895,"lo2":-89.0444,"dy":0.0017,"dx":0.0017,"nx":28,"ny":28,"refTime":"2025-11-18T03:00:00:Z","depth":0,"parameterNumber":3,"parameterNumberName":"V-component_of_WINDS"},"data":[0,0,0,0,0,0,0,0,0,0,0,0,0,0,0,0,0,0,0,0,0,0,0,0,0,0,0,0,0,0,0,0,0,0,0,0,0,0,0,0,0,0,0,0,0,0,0,0,0,0,0,0,0,0,0,0,0,0,2.282,2.282,0,2.2768,2.2767,2.2767,2.2796,2.2797,2.2799,2.28,2.2744,2.2741,2.2738,0,0,0,0,0,0,0,0,0,0,0,0,0,2.2945,2.2943,2.282,2.282,2.2819,2.2768,2.2767,2.2766,2.2796,2.2797,2.2799,2.2801,2.2744,2.2741,2.2738,0,0,0,0,0,0,0,0,0,0,0,0,0,2.2891,2.2942,2.282,2.2828,2.2828,2.2768,2.2767,2.2766,2.2795,2.2798,2.28,2.2802,2.2746,2.2741,2.2737,2.2667,0,0,2.2724,2.2722,0,0,0,0,0,0,0,0,2.2894,2.2887,2.2827,2.2827,2.2827,2.2791,2.279,2.2733,2.2795,2.2807,2.28,2.2803,2.2757,2.2752,2.2737,2.2664,2.2661,2.2724,2.2721,2.2719,2.2718,0,0,0,0,0,0,0,2.2898,2.2889,2.2799,2.2826,2.2826,2.2833,2.2828,2.2779,2.2771,2.2807,2.2809,2.2802,2.2758,2.2741,2.2736,2.2661,2.2724,2.272,2.2717,2.2716,2.2529,2.2527,0,0,0,0,0,0,2.2902,2.2892,2.2801,2.2798,2.2867,2.2829,2.2823,2.28,2.2771,2.2769,2.28,2.2804,2.2748,2.2741,2.2734,2.2651,2.2719,2.2715,2.2713,2.2531,2.2528,2.2526,0,0,0,0,0,0,2.2904,2.2893,2.2803,2.2846,2.2835,2.2825,2.2798,2.2798,2.2782,2.2767,2.2765,2.2785,2.2749,2.274,2.2684,2.265,2.2713,2.2709,2.2534,2.253,2.2527,2.2484,0,0,0,0,0,0,2.2908,2.2894,2.2867,2.2845,2.2832,2.2754,2.2796,2.2795,2.2775,2.2779,2.2752,2.275,2.275,2.269,2.268,2.2645,2.2706,2.2537,2.2532,2.2528,2.2488,2.2479,2.2471,0,0,0,0,0,2.2912,2.2856,2.2866,2.2854,2.2799,2.2752,2.2745,2.2747,2.2772,2.2745,2.2735,2.2751,2.2655,2.2684,2.2672,2.2636,2.2539,2.2534,2.2529,2.2492,2.2481,2.2471,0,0,0,0,0,0,2.2873,2.2853,2.2864,2.2799,2.2777,2.2757,2.2723,2.2735,2.2705,2.2709,2.2713,2.2707,2.2648,2.2636,2.2669,2.2567,2.2601,2.2593,2.2577,2.2566,2.2558,2.2562,2.2702,0,0,0,0,0,2.2857,2.2821,2.2805,2.275,2.2738,2.2732,2.2712,2.2716,2.2693,2.2684,2.267,2.2647,2.2612,2.2588,2.2555,2.2487,2.2482,2.2456,2.2448,2.2441,2.2434,2.2399,2.2387,2.2508,2.2508,2.2508,0,0,2.2823,2.2808,2.2785,2.2742,2.2725,2.2688,2.2724,2.2683,2.2655,2.2677,2.2624,2.2613,2.2587,2.2525,2.2497,2.2513,2.24,2.2434,2.2429,2.2425,2.2392,2.238,2.237,2.2505,2.2505,2.2506,0,0,2.2743,2.2727,2.268,2.2664,2.2639,2.2636,2.2625,2.2603,2.2597,2.2544,2.256,2.2527,2.2466,2.2448,2.2431,2.2346,2.2359,2.2335,2.2291,2.2256,2.2247,2.2239,2.2209,2.2199,2.2328,2.2328,2.2328,0,2.2703,2.2649,2.2654,2.2612,2.2593,2.2613,2.2565,2.2549,2.2514,2.25,2.2519,2.2445,2.2429,2.2364,2.2343,2.2328,2.2316,2.2338,2.2248,2.224,2.2232,2.2204,2.2193,2.2325,2.2325,2.2326,2.2326,0,2.2603,2.2565,2.2529,2.2497,2.2474,2.2429,2.2428,2.2404,2.241,2.2405,2.2351,2.2333,2.2298,2.2282,2.2287,2.2218,2.2229,2.2248,2.2282,2.2217,2.2192,2.2181,2.2321,2.2322,2.2323,2.2324,0,0,2.2495,2.2468,2.2455,2.2442,2.2417,2.2388,2.2344,2.2311,2.2291,2.2266,2.2231,2.218,2.2198,2.2178,2.2182,2.2151,2.2087,2.2174,2.2174,2.2159,2.2011,2.1998,2.1985,2.2096,2.2094,2.2092,2.2014,0,2.2414,2.234,2.2344,2.2274,2.224,2.2259,2.2221,2.2202,2.2196,2.2166,2.216,2.2124,2.215,2.2139,2.2109,2.2101,2.2058,2.2107,2.2063,2.2061,2.207,2.1972,2.1957,2.1883,2.2004,2.2002,2.2001,0,2.2309,2.2284,2.2211,2.2193,2.2179,2.2145,2.2116,2.2087,2.2066,2.2064,2.2043,2.2052,2.2009,2.2044,2.1985,2.2018,2.2001,2.1994,2.1991,2.1988,2.2027,2.1966,2.186,2.1849,2.1984,2.1986,2.1987,0,2.224,2.2187,2.2137,2.2125,2.2102,2.2079,2.2068,2.2049,2.203,2.2004,2.1991,2.196,2.1943,2.1919,2.1919,2.1945,2.186,2.1895,2.1857,2.1857,2.1838,2.184,2.1729,2.1826,2.1826,2.1826,2.1827,0,2.2149,2.2104,2.2106,2.2075,2.2025,2.2031,2.1982,2.1973,2.1957,2.1925,2.1939,2.1909,2.1911,2.1881,2.1881,2.1832,2.1824,2.1822,2.1822,2.1821,2.1821,2.1809,2.1815,2.1824,2.1824,2.1825,2.1825,0,2.2063,2.2062,2.201,2.1994,2.1989,2.1953,2.1939,2.191,2.1907,2.1866,2.1857,2.1851,2.1816,2.1814,2.1773,2.1773,2.1715,2.1721,2.1723,2.1724,2.1687,2.1691,2.1565,2.1549,2.1656,2.1655,2.1654,0,2.2006,2.1972,2.1953,2.1934,2.1923,2.189,2.1871,2.1875,2.1854,2.1829,2.1803,2.177,2.1744,2.1687,2.1678,2.1648,2.1653,2.1611,2.1649,2.1649,2.1654,2.1656,2.1654,2.1604,2.1603,2.1602,2.1601,0,2.1905,2.1907,2.1879,2.1851,2.1828,2.1806,2.1785,2.1768,2.177,2.1746,2.1711,2.1691,2.165,2.1617,2.1588,2.1577,2.1589,2.159,2.158,2.1578,2.1581,2.158,2.1704,2.1592,2.1593,2.1594,2.1594,2.1595,2.1832,2.1804,2.1787,2.1755,2.1741,2.1722,2.1695,2.1689,2.166,2.1628,2.1632,2.1594,2.1575,2.1537,2.1524,2.1494,2.1508,2.1493,2.1489,2.1486,2.1483,2.1585,2.1488,2.1489,2.1489,2.1489,2.1489,0,2.1733,2.1723,2.1695,2.1667,2.1642,2.1658,2.1636,2.1615,2.1581,2.1563,2.1538,2.1498,2.1467,2.1457,2.1426,2.1404,2.1409,2.1396,2.1398,2.1396,2.1471,2.1483,2.1393,2.1393,2.1393,2.1393,2.1393,2.1393,2.1678,2.1632,2.1632,2.1578,2.1569,2.1532,2.1519,2.1502,2.1488,2.1444,2.1418,2.1412,2.1398,2.1367,2.1339,2.1337,2.1325,2.131,2.131,2.138,2.139,2.1399,2.1411,2.1307,2.1307,2.1238,2.1237,2.1236]}]]